Volver al catálogo

METEOR 2-11 DEB

ActivoPO
NORAD 40710·DEBRIS·🇷🇺 Russia

Lanzado Jul 5, 1984 desde Plesetsk Cosmodrome

Loading…

Próximos Pases (próximas 24 horas)

TLE

ActualizadoSource: Space-Track

Época: Sep 13, 2026, 09:03 UTC

1 40710U 84072M   26256.37733833  .00001431  00000-0  10035-2 0  9991
2 40710  82.5253 298.2707 0039710 138.4292 221.9907 13.97297300123448

Sigue METEOR 2-11 DEB en tiempo real con AllMySat

Download on the App Store